Theta_e
317 327 322 310 313 314 310 310 311 313 315 319 324 327 323 320 325 321 312 309 306 311 318 314 314 315 313 313 310 308 307 309 311 310 311 311 312 313 313 313 314 318 315 304 303 307 306 307 307 306 307 305 306 305 305 305 305 305 304 304 304 304 304 304 304 304 304 304 303 303 303 303 303 302 303 302 302 302 301 302 301 301 302 302 302 301
322 329 317 307 308 308 308 309 309 312 315 320 323 326 324 320 325 318 308 311 310 311 317 312 314 316 313 311 309 309 311 312 314 313 314 315 314 315 314 315 316 315 311 307 307 307 306 307 307 306 306 306 306 305 305 306 305 305 305 305 305 305 305 305 305 305 305 305 304 303 303 302 303 302 303 302 302 302 302 302 302 302 301 301 302 302
330 320 308 305 307 306 308 308 309 314 319 324 322 322 324 320 320 317 308 312 312 311 318 317 315 315 312 311 315 319 318 315 313 312 313 314 315 317 315 316 317 316 318 318 312 306 306 308 307 307 307 306 306 305 305 305 306 306 306 306 306 306 306 305 305 305 305 304 304 303 303 302 303 302 302 303 302 302 302 302 302 302 302 301 301 302
320 311 306 306 306 308 311 309 310 316 319 321 321 319 321 316 315 318 315 314 312 308 314 317 314 315 316 319 323 321 317 315 313 313 313 311 313 316 313 313 316 320 323 321 315 308 306 307 307 307 307 306 306 306 306 306 306 306 306 306 306 306 306 305 306 305 304 304 303 303 303 302 302 302 303 303 303 303 303 303 303 303 303 302 302 301
312 306 305 306 307 311 313 312 315 323 322 318 317 317 319 315 311 316 316 313 314 309 308 313 318 322 324 327 328 320 316 316 314 315 315 311 311 312 311 312 315 319 321 320 321 313 305 305 306 307 306 307 306 306 306 306 306 306 306 306 306 305 306 305 305 305 304 304 304 304 303 303 303 303 303 303 303 304 304 304 304 303 303 302 302 302
311 303 303 308 312 314 315 314 316 320 322 318 314 311 311 311 310 314 316 316 323 318 308 310 316 330 336 330 325 326 326 324 319 315 312 316 318 315 316 320 318 318 317 317 318 310 304 304 305 306 306 305 306 306 305 306 306 306 306 306 306 306 305 305 305 304 305 305 304 305 304 304 304 303 304 303 303 304 304 304 304 304 303 303 303 303
308 303 304 311 315 316 318 316 311 313 322 318 311 307 308 310 311 316 317 316 322 317 308 307 311 325 337 328 321 326 331 329 323 316 315 324 327 323 323 325 321 320 318 316 314 308 303 304 304 306 306 305 306 306 306 306 306 306 306 306 305 305 305 306 306 305 305 305 304 305 304 304 304 303 303 303 303 303 304 304 304 304 303 303 303 303
307 306 309 311 315 317 318 316 309 310 320 315 308 307 310 310 311 315 316 315 319 316 312 311 311 316 329 330 326 321 322 322 318 312 314 318 321 324 327 327 326 325 322 320 322 316 305 301 303 305 305 306 306 306 306 306 307 306 306 306 305 306 306 307 306 306 305 304 304 304 304 304 304 303 303 303 303 303 303 303 303 303 303 303 303 303
306 310 311 311 316 317 314 311 307 308 314 312 306 307 308 308 311 312 314 318 316 315 320 320 311 313 331 339 327 315 314 316 315 316 316 313 313 315 318 322 324 325 321 320 324 317 303 300 303 304 305 306 306 307 307 307 307 307 307 306 306 306 306 306 305 304 304 303 304 304 304 304 303 303 303 303 303 303 303 303 303 303 303 303 303 303
305 308 307 308 311 312 309 306 305 310 312 308 304 306 307 308 311 310 313 318 316 318 325 322 310 312 333 343 324 310 316 321 319 321 320 317 318 316 313 314 316 319 319 320 315 304 300 302 304 304 305 306 306 306 306 306 306 306 306 306 305 305 304 304 303 303 303 303 303 303 303 303 302 302 302 302 302 302 302 302 302 302 302 302 302 302
306 305 304 306 308 307 306 304 303 306 307 305 306 309 311 313 312 312 316 317 317 327 327 315 310 312 323 336 326 316 323 326 321 319 317 317 317 315 314 314 315 316 316 317 312 301 300 303 303 304 305 304 304 305 304 305 304 304 304 304 303 303 303 303 303 302 302 302 302 302 302 301 301 301 301 301 301 301 301 301 301 301 301 301 301 301
310 310 307 305 305 305 307 308 303 303 305 306 312 315 315 320 317 318 328 321 317 333 325 311 311 312 317 328 324 320 325 323 319 316 315 314 313 313 313 313 315 316 314 314 315 308 302 301 302 303 303 303 304 304 303 303 303 303 302 302 302 301 301 301 301 301 301 301 301 301 301 300 300 300 300 300 299 299 299 299 299 299 299 300 300 300
314 312 308 304 304 304 309 314 307 305 308 309 318 325 322 329 326 324 335 326 321 329 316 309 313 312 319 325 320 322 325 320 317 316 316 315 314 313 312 311 313 314 315 315 316 315 306 300 301 302 302 302 303 302 302 302 302 302 301 300 300 300 300 300 300 300 300 300 300 299 300 299 299 299 299 298 298 298 298 298 298 298 298 298 298 298
315 311 309 307 309 303 306 316 313 313 314 311 320 328 325 327 323 325 333 320 317 322 311 308 313 316 322 319 316 322 319 315 313 314 316 317 316 314 312 313 313 313 315 315 314 315 309 300 300 301 301 302 302 302 302 302 302 301 300 300 299 299 299 299 299 299 299 299 299 299 299 299 298 298 298 298 297 297 297 297 297 297 297 297 297 297
316 315 311 308 310 305 305 310 310 313 315 312 314 318 322 324 316 321 330 318 314 322 318 311 314 326 325 311 313 317 313 312 312 312 314 316 317 316 314 314 314 313 315 315 313 311 305 300 301 302 302 302 302 302 302 302 301 300 299 299 299 299 299 299 299 299 299 298 298 298 298 298 298 298 298 297 297 297 297 296 296 296 296 296 296 296
316 315 310 305 305 304 307 306 303 311 315 310 308 313 317 320 320 319 317 315 315 320 326 319 318 330 322 310 315 316 313 313 311 311 313 314 314 313 314 315 314 315 315 313 314 310 303 299 301 302 301 302 302 302 301 301 300 299 299 299 299 299 298 298 298 298 298 298 298 298 298 298 298 298 297 297 296 296 296 296 295 295 294 294 294 295
315 314 308 305 304 302 305 304 302 309 311 309 312 318 312 308 320 322 310 308 310 317 326 321 321 329 319 313 319 316 312 312 310 312 313 312 312 312 315 316 315 315 314 312 313 309 302 300 301 301 301 301 301 300 300 299 299 299 299 298 298 298 298 298 298 298 298 298 297 297 297 297 297 296 296 295 295 295 295 295 294 294 293 293 293 293
314 316 309 305 307 304 300 303 304 305 308 310 314 314 308 306 315 319 315 318 317 321 330 322 320 329 324 320 321 314 312 314 312 314 313 310 311 314 316 318 316 315 312 311 310 306 301 299 301 300 300 300 298 298 298 298 298 298 298 298 298 298 297 297 297 297 297 297 297 296 296 295 295 294 294 293 293 293 293 293 292 291 291 290 290 291
309 317 314 305 308 307 300 303 308 305 303 309 310 306 307 314 318 316 318 324 320 319 328 327 322 321 321 326 325 315 314 316 314 314 313 311 312 316 317 317 316 313 311 310 310 308 302 299 300 299 298 298 297 297 297 297 298 297 297 297 297 296 296 296 296 296 296 296 295 294 294 293 292 292 291 291 291 291 290 289 289 289 288 288 288 288
308 312 314 308 305 306 305 308 314 312 303 304 307 304 307 316 318 316 316 319 320 320 323 329 329 324 324 330 329 320 315 314 314 314 313 313 314 315 317 317 315 313 312 310 310 310 302 297 298 298 297 297 297 297 297 297 297 296 296 296 296 295 295 295 295 295 294 294 293 293 292 291 290 289 289 289 289 288 288 287 287 286 286 286 286 286
311 308 314 312 304 307 312 312 315 320 312 309 313 311 310 311 311 312 312 311 319 326 324 323 328 335 335 327 325 323 315 310 312 313 312 314 315 314 315 316 314 314 313 309 309 308 300 296 297 296 296 296 296 296 296 296 296 295 295 295 294 294 293 293 293 293 293 292 292 291 290 289 288 287 287 287 286 286 286 285 285 284 285 284 284 284
311 311 319 317 312 317 319 308 303 309 310 312 319 319 316 316 316 319 318 312 312 318 322 321 321 330 332 320 320 324 318 312 311 311 312 314 316 316 314 314 315 314 312 310 309 305 297 295 296 295 295 296 295 295 295 295 295 294 293 293 292 292 292 291 291 291 291 290 290 289 288 288 287 286 286 285 285 284 284 284 284 284 283 283 282 283
309 314 317 318 319 315 307 301 300 301 301 304 308 310 312 318 322 326 323 318 312 309 312 315 316 324 326 317 318 321 316 314 311 310 312 313 316 317 314 314 315 312 310 309 306 300 295 295 295 294 295 294 294 294 293 293 293 292 291 291 291 291 290 290 290 289 288 288 288 288 287 287 287 286 285 284 283 283 283 283 283 283 282 281 281 281
307 313 314 319 326 314 301 299 299 297 299 305 306 305 309 315 319 323 319 316 316 313 313 316 317 325 327 316 316 318 313 313 312 309 311 313 317 318 315 315 315 311 308 308 304 297 294 295 294 293 294 293 293 293 292 291 290 290 290 289 290 290 289 289 288 287 287 286 286 286 286 286 286 285 284 283 282 281 281 282 282 282 281 281 281 281
307 315 317 318 326 324 316 312 307 302 304 310 311 307 307 310 313 316 312 309 314 317 319 322 321 325 326 318 318 317 313 317 318 310 309 312 316 319 318 316 315 310 308 306 302 298 295 294 293 293 292 292 292 291 290 290 289 288 288 288 288 288 288 288 287 286 285 284 284 284 284 284 284 284 284 283 282 281 280 281 281 281 281 280 280 279
307 311 316 320 320 319 321 321 315 312 310 310 311 308 306 308 310 314 314 313 318 317 314 320 322 321 322 321 319 316 314 317 317 311 309 310 314 318 318 316 315 312 308 305 301 298 296 294 292 292 292 292 291 290 289 288 287 287 286 286 286 287 286 286 285 285 284 283 282 282 282 282 282 283 283 282 282 281 280 279 279 280 280 279 279 278
310 309 312 320 322 317 317 318 312 311 313 312 312 311 309 307 308 313 318 319 320 316 313 316 316 314 316 318 318 320 319 316 313 310 310 311 313 316 314 313 313 310 305 302 299 297 296 294 292 291 291 291 290 289 288 287 286 285 285 284 284 284 284 284 283 283 282 282 281 281 280 280 280 281 281 281 280 280 279 278 279 279 279 278 278 277
312 312 311 313 315 313 311 311 308 309 312 313 313 314 313 309 307 311 315 316 317 316 314 313 313 313 312 312 316 322 321 316 313 311 310 311 313 313 311 311 312 308 302 300 298 296 295 294 292 291 290 289 288 287 286 285 285 284 284 283 283 282 282 282 282 282 281 281 280 279 279 279 279 279 279 279 279 279 278 278 278 278 278 278 277 277
314 313 309 307 311 314 309 306 308 309 310 312 312 314 314 310 308 310 311 311 312 314 313 314 316 315 311 309 314 319 319 315 313 310 308 308 310 311 310 311 313 307 301 299 297 295 295 293 291 290 289 288 287 285 284 284 283 283 283 282 282 281 281 281 281 280 280 279 279 279 278 278 278 278 278 278 278 278 278 277 277 277 277 277 277 276
311 315 311 306 310 317 310 304 305 307 310 311 310 310 311 310 309 309 309 309 309 311 312 312 313 311 309 308 310 315 317 314 310 309 309 309 312 313 311 312 311 305 300 298 296 294 293 292 290 289 288 287 285 284 283 282 282 282 282 281 281 280 280 280 279 279 278 278 278 278 277 277 277 278 278 278 277 277 277 277 276 276 276 276 276 276
304 315 314 307 312 319 310 303 304 305 308 311 309 307 306 307 307 306 306 307 307 309 309 308 309 308 307 308 309 312 316 315 312 311 310 309 311 311 311 310 307 302 299 297 295 294 292 291 290 289 287 286 284 283 282 281 281 281 281 280 280 279 279 279 278 277 277 277 277 277 277 277 277 277 277 276 276 276 276 276 276 276 276 276 275 275
303 310 309 306 313 319 308 304 308 309 308 311 312 308 305 305 308 306 305 306 307 309 308 307 308 307 307 311 310 309 312 312 311 311 308 307 309 309 310 308 304 300 298 296 294 293 292 290 289 288 286 284 283 282 281 281 280 280 280 279 279 278 278 278 277 277 276 276 276 276 276 276 276 276 276 275 275 275 275 275 275 275 275 275 274 274
305 311 313 309 313 318 307 303 310 312 311 313 313 311 309 307 306 305 305 305 305 307 308 308 308 307 311 315 311 309 311 312 310 308 306 308 312 313 310 307 303 299 296 295 293 292 291 290 288 286 285 283 282 281 280 280 279 279 279 279 278 278 277 277 276 276 275 275 275 275 276 276 275 275 275 275 275 275 275 275 275 274 274 274 274 274
303 311 314 308 310 317 310 305 308 310 311 311 311 311 311 309 308 307 307 306 305 305 306 307 308 307 309 312 310 308 311 313 312 309 307 307 309 312 309 303 300 298 295 293 293 291 290 289 287 285 283 281 281 280 279 279 279 279 278 278 278 277 277 276 275 275 275 275 275 275 275 275 275 275 275 275 275 275 274 274 274 274 273 273 273 273
305 308 309 305 307 313 309 306 308 311 312 312 310 309 308 306 308 309 307 306 305 304 306 307 306 306 306 307 306 307 310 312 309 308 307 303 301 304 305 301 297 296 294 292 291 290 289 287 285 282 281 280 280 279 279 279 279 278 278 278 277 277 276 275 275 274 274 274 274 275 275 275 274 274 274 274 274 274 274 273 273 273 273 273 273 272
307 307 308 307 306 308 310 310 310 312 313 310 308 309 306 304 305 305 306 308 306 303 304 305 304 304 305 304 305 308 309 306 303 304 304 299 295 296 299 299 296 294 293 292 291 290 288 285 282 281 280 280 279 279 279 279 279 278 278 277 277 276 276 275 274 274 273 273 274 274 274 274 273 273 273 273 273 273 273 272 272 272 272 272 272 271
303 307 309 307 305 308 313 314 311 308 308 309 308 309 306 307 309 308 306 309 311 309 305 303 304 305 303 303 306 306 303 302 304 307 303 296 294 294 295 295 294 292 292 291 290 288 286 283 281 280 280 279 279 279 279 279 279 278 278 277 277 276 275 274 274 273 273 272 272 273 273 273 272 272 272 272 272 272 272 271 271 271 271 271 271 270
299 306 307 306 309 308 308 310 310 309 311 315 312 307 303 307 311 309 304 306 313 315 309 304 305 305 303 304 307 305 303 303 306 308 303 295 293 294 293 292 291 291 291 290 289 286 284 282 281 280 280 279 280 280 279 279 279 278 278 277 276 276 275 274 273 273 272 272 271 272 272 272 272 271 271 271 270 270 271 270 270 270 270 270 270 269
299 305 305 305 310 308 306 309 310 309 313 315 310 305 305 306 307 307 305 308 314 314 308 305 308 307 304 306 305 304 306 308 308 307 302 293 291 293 293 291 290 290 290 288 286 284 282 281 280 280 280 280 280 280 279 279 278 278 277 277 276 276 275 274 273 272 272 271 271 271 271 271 271 270 270 270 269 269 270 269 269 269 269 269 269 268
300 305 305 303 307 308 308 311 308 306 309 309 305 306 307 305 306 307 308 313 323 321 309 306 312 311 306 305 303 302 306 309 309 306 298 290 291 291 291 290 290 289 287 286 284 282 281 281 280 280 280 280 280 280 279 279 278 278 277 276 275 275 274 274 272 271 271 270 270 270 270 270 270 269 269 269 268 268 269 269 268 268 268 268 268 268
300 303 303 301 305 306 305 308 307 306 309 309 307 308 306 305 306 309 308 311 324 327 313 308 314 313 307 304 303 303 305 307 305 300 292 290 292 291 289 289 288 287 285 284 283 282 281 281 281 280 280 280 280 279 279 278 278 277 276 275 274 273 273 272 271 270 270 270 269 269 269 269 269 269 268 268 268 268 268 267 267 267 267 267 267 267
303 303 301 300 303 304 304 306 305 306 309 309 307 305 304 305 307 310 311 313 321 325 317 310 312 311 306 304 303 303 305 300 294 292 290 290 291 290 289 288 286 284 284 283 282 282 281 281 281 280 280 280 279 279 278 277 277 276 275 274 273 271 271 270 270 270 269 269 268 268 268 268 268 267 267 267 267 267 267 266 266 266 266 266 266 266
306 307 306 300 301 305 305 304 304 309 309 305 303 302 302 306 312 315 315 316 319 323 319 313 310 306 303 303 303 303 302 294 290 291 290 290 290 290 288 287 285 284 283 282 282 281 280 280 280 280 280 280 279 278 277 276 275 274 273 272 271 270 270 269 269 269 268 268 268 267 267 267 266 266 266 266 266 266 266 265 265 265 265 265 266 266
304 307 311 306 303 307 309 305 305 311 309 301 304 309 305 303 312 319 314 311 315 317 316 314 310 302 300 302 302 300 296 291 289 290 289 289 290 289 288 287 285 283 283 282 281 280 280 280 279 279 280 280 279 278 277 275 274 272 271 270 269 269 269 269 268 268 268 267 267 266 266 266 265 265 265 265 265 265 265 264 264 265 265 265 265 265
304 305 309 310 306 306 308 306 304 308 307 301 303 310 308 304 311 313 309 308 311 311 309 310 310 304 298 299 300 296 292 290 289 289 288 288 289 288 288 287 285 283 282 281 280 279 279 279 278 279 279 279 278 277 275 274 272 270 269 269 268 268 268 268 268 268 267 266 266 266 266 265 265 265 265 265 265 264 264 264 263 264 264 264 264 263
305 302 303 308 309 305 303 304 302 302 305 304 302 304 305 307 311 309 306 305 306 307 307 308 309 306 298 297 298 295 291 289 288 287 287 287 287 287 287 286 284 282 280 280 279 279 278 278 278 278 279 278 276 275 273 272 271 269 268 268 268 268 268 267 268 267 267 266 266 266 265 265 265 264 264 264 264 263 263 263 262 263 263 263 262 262
305 302 301 305 309 306 304 306 305 302 303 304 302 301 301 303 304 305 305 304 302 304 305 304 303 302 297 295 297 296 291 287 286 286 285 286 286 287 287 285 283 281 280 279 279 278 278 278 278 278 277 275 274 273 271 270 269 268 268 268 267 267 267 267 267 267 266 266 266 265 265 264 264 264 263 263 263 263 262 262 262 262 262 262 261 261
304 301 301 303 305 304 304 307 307 305 304 302 301 302 301 301 301 301 301 301 300 300 300 298 297 298 296 294 295 294 290 286 285 285 284 284 285 286 286 285 283 281 280 279 278 278 277 277 278 277 276 273 272 271 270 269 268 268 267 267 266 266 267 267 267 266 266 265 265 264 264 263 263 263 262 262 262 262 261 261 261 261 261 261 261 260
304 301 303 305 303 302 303 303 304 304 304 302 302 302 301 300 301 301 301 299 298 297 297 296 295 295 296 294 293 292 289 286 285 285 284 284 284 285 285 284 281 279 278 278 277 277 277 277 277 277 275 272 270 269 268 268 267 267 267 267 266 266 266 266 266 266 265 265 264 264 263 262 262 262 261 261 261 261 261 260 260 260 261 261 261 260
303 302 303 304 302 303 303 302 302 304 303 303 304 304 303 302 301 301 302 300 298 297 297 297 296 293 293 293 291 290 290 287 284 284 285 283 283 283 282 281 279 277 277 277 277 277 276 276 277 276 273 271 269 268 268 267 267 266 266 266 266 266 266 266 265 265 265 264 263 263 262 261 261 260 260 260 260 260 260 261 260 259 259 260 260 260
302 302 303 303 303 304 304 303 304 305 304 304 304 304 306 306 303 303 303 301 300 298 296 297 297 296 293 291 289 288 289 287 284 283 283 282 281 281 280 279 277 276 276 276 276 276 275 275 276 275 272 270 269 268 267 266 266 266 266 265 265 265 266 265 264 264 263 262 262 261 261 260 260 259 259 259 258 258 259 260 261 260 259 258 258 259
Wind_Speed
3 5 3 2 4 3 3 3 4 4 4 5 4 4 3 1 4 3 3 5 3 2 5 4 5 10 12 13 12 8 5 4 6 5 6 6 5 6 5 6 6 6 7 8 7 4 3 1 1 0 0 1 2 3 4 5 5 5 6 6 6 6 7 8 9 10 11 12 12 13 13 14 15 15 14 15 16 15 14 14 14 14 14 14 14 13
5 6 1 4 5 4 3 3 4 4 4 5 5 3 2 1 5 3 1 5 4 2 4 2 6 11 11 12 10 6 5 5 6 5 6 6 6 5 5 7 7 5 7 8 6 5 4 3 2 2 2 2 2 2 3 4 4 4 5 6 6 7 7 8 9 10 11 11 12 13 13 15 15 15 15 16 16 15 15 15 15 15 15 15 14 14
6 3 3 4 4 4 4 3 3 4 5 4 3 3 2 1 4 4 2 4 4 2 4 5 7 12 12 10 9 6 4 6 5 5 6 5 5 5 5 6 6 5 6 6 5 5 5 4 3 4 3 3 3 3 3 4 4 5 5 6 7 7 8 9 9 10 10 10 11 12 12 14 14 14 15 15 15 15 16 16 17 17 16 15 15 14
2 2 3 2 4 4 4 3 4 5 4 3 3 3 1 3 3 3 3 5 4 1 4 5 5 9 9 7 7 5 4 5 5 5 6 6 6 6 5 4 5 5 5 5 6 6 5 5 4 4 4 4 4 4 4 5 6 6 6 6 7 7 8 8 9 9 10 10 11 11 11 12 12 12 13 13 13 14 15 15 16 17 16 15 14 14
2 2 2 4 2 3 3 4 4 4 3 3 2 4 2 1 1 3 5 6 4 1 2 4 5 6 5 4 6 5 3 4 5 4 5 5 6 5 4 4 5 5 5 6 6 6 6 5 4 3 3 4 4 4 5 5 6 6 5 6 6 7 7 7 8 8 9 10 10 10 10 10 11 12 13 14 14 15 16 16 17 17 17 16 15 14
3 1 1 4 3 3 4 2 1 3 2 3 1 3 4 3 3 4 6 5 4 3 2 4 4 5 5 3 6 5 6 5 5 3 4 5 5 4 5 5 5 5 5 5 6 6 6 6 5 3 2 3 4 4 5 6 6 5 5 5 5 5 6 6 6 7 7 9 10 10 10 10 12 13 14 15 17 17 17 17 17 16 16 15 15 15
2 1 2 3 3 4 5 1 2 3 3 1 1 3 4 4 2 1 4 3 2 2 2 3 1 4 6 5 6 4 6 7 6 3 4 5 5 4 5 5 4 4 4 5 6 6 6 6 6 5 5 7 6 5 5 5 5 4 4 4 4 5 5 5 6 6 7 9 9 9 9 10 11 11 13 14 14 15 15 15 15 14 15 15 14 14
1 2 4 4 5 5 3 1 2 3 4 0 2 4 4 3 2 1 3 2 1 3 3 4 2 2 4 6 6 3 4 6 6 4 4 5 4 4 5 5 5 5 4 4 5 5 5 6 6 6 7 7 6 5 5 4 5 4 3 3 4 5 6 6 6 7 8 8 8 7 8 9 9 10 12 12 13 13 14 14 14 14 14 14 14 14
1 1 0 2 4 2 1 1 2 3 3 2 3 4 3 3 3 3 4 1 1 2 3 4 3 0 5 6 5 3 0 4 6 6 5 5 3 2 1 3 4 5 4 4 4 4 5 4 5 6 8 9 8 8 8 8 8 7 7 7 7 7 7 7 7 7 8 8 8 9 9 10 11 11 12 12 13 14 15 15 16 16 15 15 15 15
1 1 3 3 2 1 1 1 0 2 2 2 4 3 3 3 3 3 3 1 2 2 4 4 2 0 4 6 3 2 1 6 7 6 6 5 4 2 1 1 0 0 1 2 4 4 2 4 7 9 11 12 12 12 11 12 12 12 11 10 10 11 10 9 9 9 10 10 11 12 12 13 14 15 15 15 17 18 18 19 20 20 19 18 18 17
1 1 2 2 1 2 3 2 1 2 2 4 4 4 3 3 3 3 2 2 3 2 5 5 2 0 3 5 4 3 4 6 6 4 5 4 2 2 1 1 2 3 3 2 2 2 5 10 11 13 14 14 14 14 14 15 15 15 14 14 16 16 15 14 14 14 15 15 15 16 16 17 18 19 19 21 23 23 23 24 24 24 23 23 22 21
2 2 1 1 1 3 4 3 2 2 2 4 3 2 2 3 3 3 4 3 2 4 6 4 3 1 2 5 5 5 6 5 7 6 6 6 5 4 2 1 1 2 3 5 5 5 8 11 13 15 16 16 17 17 19 20 19 20 19 19 21 20 18 18 17 17 18 19 19 19 19 21 21 22 24 25 26 25 25 26 26 25 26 25 25 25
1 1 1 1 1 2 3 3 3 4 4 3 2 3 3 3 4 2 3 1 2 4 3 3 2 1 5 7 6 7 7 6 6 6 7 8 8 6 4 3 2 2 4 5 6 6 6 9 12 15 16 17 19 20 21 22 22 23 22 22 23 22 20 20 20 20 21 22 22 22 22 23 24 24 25 26 26 25 25 25 26 27 27 27 27 27
2 2 1 1 1 1 3 1 1 1 2 2 2 3 3 2 3 3 4 2 3 3 2 3 2 2 5 5 6 7 7 5 6 5 5 6 7 7 5 1 1 3 6 5 6 6 6 8 12 15 16 18 19 20 21 22 22 23 23 23 24 24 22 21 22 22 23 24 24 23 24 24 24 25 25 25 25 24 24 24 26 26 27 27 27 27
0 3 1 1 1 1 1 2 2 2 3 2 3 4 3 3 2 3 4 2 4 4 3 4 2 3 3 2 5 7 6 5 4 5 4 4 4 4 2 1 1 4 5 5 6 6 6 9 13 15 17 18 18 19 20 21 21 22 23 23 24 24 23 23 23 23 24 25 24 23 23 23 23 23 24 24 24 24 24 25 26 27 27 27 27 26
1 4 2 1 2 1 0 2 1 3 2 1 2 4 2 2 3 1 3 4 2 3 3 3 3 4 3 4 5 4 3 3 2 1 1 4 3 2 2 3 4 5 5 6 6 6 6 9 13 15 17 17 18 19 20 21 21 22 23 23 24 25 24 23 24 24 24 23 23 23 23 23 23 24 24 25 25 25 26 26 27 28 28 28 28 27
1 3 2 2 2 1 1 2 1 1 1 1 1 1 2 3 5 4 1 1 3 1 3 2 3 5 3 4 5 4 0 2 2 0 3 5 3 2 5 6 6 5 5 6 6 6 7 9 12 14 16 18 20 21 21 21 21 22 23 24 25 25 24 24 23 23 23 23 24 25 25 25 25 26 27 27 27 27 27 28 28 29 29 29 30 29
2 2 3 1 1 1 1 1 2 1 1 3 2 3 2 2 4 3 0 3 4 0 4 2 3 5 2 2 5 3 4 6 5 4 4 5 4 4 6 6 5 6 6 6 6 6 8 10 13 14 17 20 21 22 22 22 22 23 24 24 25 25 24 23 23 23 24 24 26 27 27 27 27 28 28 28 28 28 28 29 29 30 30 31 31 31
2 1 4 0 1 2 2 1 1 2 2 3 2 2 1 2 1 2 1 1 1 2 4 4 4 3 3 4 3 4 9 9 8 7 6 7 7 6 7 6 6 6 5 5 6 5 7 11 13 16 19 21 22 22 22 23 23 24 25 24 25 25 24 24 24 25 25 26 27 27 27 28 28 28 28 28 29 29 30 31 30 31 31 31 31 32
2 1 3 2 1 2 2 1 2 1 3 3 0 1 1 3 3 1 1 2 2 2 3 4 5 3 6 6 6 10 12 11 10 9 8 9 9 7 7 7 7 7 6 6 6 5 7 11 14 17 21 22 22 22 23 24 24 25 25 24 25 24 24 24 24 26 26 27 27 27 28 28 29 29 29 29 30 30 31 31 31 31 31 31 32 32
3 1 3 3 2 1 1 2 4 4 3 2 1 0 1 1 1 0 1 1 3 2 2 1 4 6 6 4 7 10 10 10 11 10 9 9 9 8 7 7 7 7 7 6 7 6 8 13 16 18 21 22 23 22 23 24 24 24 23 23 24 24 24 25 25 26 27 27 27 28 28 29 29 29 29 30 30 31 31 30 31 31 31 31 32 32
1 2 3 1 2 3 4 3 2 4 4 4 4 3 4 3 3 2 3 2 2 2 3 3 3 8 6 3 6 6 6 8 8 8 8 8 9 8 6 7 7 7 7 7 7 6 9 14 17 19 21 22 23 23 23 23 23 23 23 23 24 24 25 25 25 26 26 27 28 29 29 29 29 29 29 30 30 30 30 30 30 30 30 31 31 31
2 3 2 2 3 3 3 3 0 1 3 4 2 1 3 3 4 5 3 3 1 1 1 3 1 8 7 3 5 5 5 5 5 6 8 8 8 7 6 6 6 6 6 6 7 7 11 15 17 19 20 21 23 23 23 22 23 22 22 23 25 25 25 25 25 25 26 28 29 29 29 29 28 28 29 30 30 30 29 29 29 28 29 31 31 31
1 3 1 3 3 2 3 2 1 2 3 2 1 1 3 2 3 5 4 3 2 3 3 2 3 8 6 2 3 5 5 5 5 6 8 7 7 7 6 6 6 5 5 6 7 8 12 16 16 18 19 20 22 22 21 21 22 22 22 23 25 25 25 24 24 25 26 28 29 29 29 28 27 27 28 29 29 29 29 28 28 28 28 30 30 31
1 1 2 2 4 5 5 4 4 3 0 2 2 1 2 3 5 3 2 3 1 5 6 4 5 8 6 4 4 4 4 5 7 7 7 7 7 7 6 5 5 6 7 7 7 8 10 12 13 15 17 19 21 20 20 21 21 22 22 23 25 25 25 24 24 25 25 27 28 28 28 27 27 27 27 27 27 27 27 27 28 28 28 29 30 30
1 1 3 4 2 3 3 3 3 2 1 2 1 2 3 4 6 3 2 3 3 4 6 6 7 7 6 6 7 6 4 5 7 7 7 7 7 6 4 5 5 6 8 9 9 8 8 9 12 15 17 19 20 19 19 20 22 23 23 24 25 25 25 24 24 25 25 25 27 27 27 27 26 26 26 25 25 25 26 27 27 28 28 28 28 30
2 1 2 5 6 6 5 5 4 2 2 2 3 3 4 5 4 4 4 3 5 3 3 9 8 8 12 8 6 7 5 6 7 6 7 7 8 6 4 4 4 6 7 9 9 8 8 9 11 15 17 18 19 19 19 20 22 23 25 25 25 25 25 24 24 25 25 24 25 26 26 26 26 25 25 24 24 24 25 26 27 27 27 26 27 29
4 2 3 5 6 6 5 5 2 1 3 6 5 4 6 7 6 6 6 6 6 4 7 10 7 8 16 12 7 8 7 6 7 8 9 8 7 6 4 4 4 5 7 8 9 10 10 10 10 14 18 19 20 19 19 21 22 24 26 25 25 25 25 24 24 25 24 24 24 25 25 25 25 25 25 24 24 24 25 25 25 25 25 26 26 27
5 2 3 3 5 6 3 2 2 3 4 5 6 7 8 9 10 12 13 9 8 7 13 8 7 9 17 12 8 9 9 8 9 9 6 4 4 4 5 6 6 8 9 10 10 10 11 10 10 14 18 19 20 20 20 21 22 24 26 25 24 25 24 24 24 24 24 23 24 23 24 24 25 25 24 24 24 24 24 24 24 24 25 25 25 25
4 3 2 2 4 7 3 3 2 4 4 4 7 10 9 10 14 15 13 11 10 14 18 13 9 14 19 14 9 8 8 8 7 4 2 4 6 6 6 6 8 10 11 12 11 10 10 10 12 16 18 19 20 20 21 21 22 24 25 24 24 24 23 24 24 24 24 23 22 22 23 24 25 25 24 24 24 23 23 23 23 23 24 24 24 24
1 2 1 3 2 7 4 4 3 2 4 6 10 11 9 9 11 12 11 8 8 14 18 14 12 18 19 11 7 8 8 6 6 7 8 9 8 7 7 8 9 11 11 11 11 10 10 10 13 16 17 18 20 21 22 22 23 24 25 24 25 24 23 24 25 24 24 22 21 21 22 24 24 24 24 23 22 22 22 22 22 24 24 23 24 23
2 1 1 4 2 6 4 5 6 4 2 8 13 13 12 11 9 10 9 8 11 15 14 7 8 16 14 3 5 8 8 8 10 12 11 10 8 8 10 10 11 12 13 12 12 11 11 11 13 15 18 19 21 22 23 24 24 24 24 25 24 23 23 24 25 24 23 21 20 20 21 22 22 22 22 21 21 21 22 23 23 24 24 23 23 23
3 3 1 3 1 6 5 4 4 6 5 8 11 11 13 13 11 8 6 9 15 14 9 7 12 15 7 2 5 7 7 9 12 12 11 9 7 8 9 10 11 12 13 13 12 12 11 12 14 17 20 22 22 23 24 25 26 25 25 25 24 23 24 24 23 23 21 19 19 20 21 21 21 21 21 21 21 21 22 23 24 24 24 23 23 24
3 5 3 2 2 5 7 5 4 5 5 8 6 3 6 10 12 12 10 12 13 12 9 10 13 12 7 5 8 9 8 8 8 7 6 6 6 6 7 9 10 11 11 11 11 11 11 14 17 20 22 23 23 24 24 25 26 25 25 25 24 23 23 22 22 21 19 19 19 19 19 19 20 20 20 20 20 21 22 23 22 22 22 22 23 24
5 5 2 1 2 3 4 5 4 5 8 7 5 3 3 5 9 10 11 12 12 14 15 15 17 18 14 11 9 8 8 6 4 5 5 4 5 6 6 7 9 11 11 10 11 11 13 18 21 22 23 24 25 26 25 25 26 26 24 24 23 22 21 21 20 19 18 18 18 18 18 18 18 18 18 19 20 20 21 21 21 21 22 22 22 22
7 5 3 2 2 1 1 2 3 8 9 10 10 5 4 3 4 2 10 13 13 14 15 18 21 20 15 13 9 5 3 3 3 5 7 6 5 6 7 8 10 12 12 13 14 15 19 23 25 25 26 26 26 26 26 26 26 26 24 23 22 21 20 19 18 17 17 17 17 17 17 17 16 16 17 18 19 20 20 20 20 20 20 21 20 20
5 5 2 2 3 2 2 4 4 7 11 13 10 4 5 4 5 4 6 9 8 11 14 17 18 16 14 13 5 3 2 2 5 7 8 7 6 7 8 8 9 12 13 15 17 19 23 25 26 27 28 27 26 26 26 26 26 26 24 22 21 20 19 18 16 15 15 16 15 15 15 16 16 16 16 17 18 19 18 18 18 18 19 19 18 18
2 2 4 5 3 2 1 4 5 5 7 8 6 3 2 4 7 6 3 5 6 11 14 14 14 15 14 8 3 5 3 1 6 10 7 8 6 7 7 8 11 14 16 18 20 22 24 25 26 28 28 28 26 25 26 26 25 26 23 20 19 18 16 16 14 13 14 13 13 14 14 15 15 14 15 16 17 17 16 16 16 16 16 16 16 16
4 3 4 4 1 2 3 4 4 5 7 6 5 4 2 4 6 4 3 6 8 9 10 11 12 14 11 6 7 7 4 2 8 10 6 10 9 8 10 10 12 15 16 19 22 24 25 26 27 27 27 26 25 24 25 25 24 24 22 19 17 15 13 13 12 12 12 12 12 13 13 14 13 12 13 14 15 15 14 14 14 15 16 15 14 16
4 3 3 3 4 4 4 4 5 6 6 6 6 5 3 4 6 5 5 9 8 5 6 11 12 12 7 8 8 7 7 7 8 6 7 11 9 8 9 10 13 16 18 20 23 26 27 28 28 26 25 25 25 25 24 24 23 22 20 17 16 13 11 10 10 11 12 12 13 13 12 13 12 11 12 13 13 13 12 12 14 15 15 14 14 15
1 0 1 3 5 5 6 6 6 5 6 7 6 6 5 3 5 3 6 8 5 5 6 10 10 9 8 10 8 8 9 6 1 3 8 11 10 9 10 12 16 18 20 23 25 26 27 26 25 25 24 25 26 25 23 23 23 21 18 16 14 11 9 9 10 11 12 12 12 12 12 12 10 9 10 11 11 12 12 12 13 14 13 13 14 14
3 2 1 3 4 4 5 5 5 7 9 11 8 6 5 3 3 7 7 3 3 6 7 8 9 8 8 11 11 8 4 1 4 7 9 11 11 10 11 15 18 18 20 24 25 26 26 24 23 24 24 24 25 23 22 23 22 19 16 14 11 10 10 11 11 11 12 11 11 11 11 11 9 8 9 10 11 12 12 11 12 12 11 12 13 11
7 5 3 4 5 3 2 2 4 7 7 10 10 5 2 6 7 6 4 2 3 6 5 6 9 8 8 11 12 6 3 4 6 8 9 9 10 11 12 15 17 18 20 23 23 24 26 24 23 24 24 23 23 21 21 22 21 17 14 13 11 10 12 12 11 11 11 10 10 10 9 9 9 8 9 10 10 11 11 10 10 11 11 12 12 9
7 7 4 4 5 5 4 6 7 6 5 11 11 6 9 13 7 4 3 4 3 4 5 5 7 8 9 10 9 5 5 6 8 9 10 10 10 11 12 14 17 19 20 21 22 23 25 25 23 22 23 22 21 19 19 20 19 16 14 12 11 11 12 12 10 10 11 10 9 9 8 8 8 8 9 10 10 10 10 10 10 11 12 12 10 9
9 8 5 4 5 5 6 8 6 2 2 7 8 7 9 11 6 4 5 5 4 4 5 4 6 7 8 7 6 6 6 7 9 10 11 11 11 11 13 15 18 18 18 20 21 23 25 25 24 22 21 20 18 17 17 19 19 17 14 12 12 12 12 11 10 10 11 9 8 8 7 7 7 8 8 9 10 10 10 9 10 11 11 9 8 11
6 3 2 2 3 5 9 8 7 5 3 6 12 10 6 6 5 3 5 7 7 6 5 4 6 6 7 8 8 7 8 9 10 10 11 12 12 12 13 15 16 17 18 19 20 23 24 23 22 22 20 18 17 18 18 19 19 18 15 13 12 12 11 10 10 10 10 9 7 7 7 7 7 8 8 8 8 8 8 7 8 9 9 7 7 11
2 3 3 3 2 5 8 6 8 10 10 10 12 11 8 9 9 6 6 8 7 6 6 5 5 6 7 9 10 10 9 10 11 10 10 11 12 12 12 13 16 18 18 19 21 23 23 21 19 20 20 18 18 20 20 18 18 17 15 13 12 11 10 9 9 8 9 8 6 6 6 6 6 7 7 7 6 6 5 5 6 7 7 7 9 11
1 4 5 5 6 8 11 6 5 8 11 10 9 7 7 12 12 9 9 8 6 5 5 4 4 6 7 9 10 9 10 11 13 12 11 10 11 11 12 14 18 19 19 22 25 24 21 19 19 20 19 18 19 21 20 19 17 15 14 12 11 10 9 8 8 7 7 7 6 6 6 5 5 5 5 5 5 4 4 5 5 5 4 7 10 11
5 5 5 5 6 9 13 13 9 8 13 15 13 11 11 13 12 10 9 8 7 7 7 6 6 7 8 9 9 9 10 12 13 13 14 12 11 11 13 15 18 18 17 21 23 22 19 18 20 20 18 18 20 21 19 18 16 13 12 11 10 9 7 7 7 6 6 5 5 5 4 4 4 3 4 4 3 3 2 3 5 5 5 6 7 7
6 5 4 3 6 9 13 15 11 7 11 17 15 12 14 14 11 10 10 9 10 11 10 9 8 7 7 8 9 10 11 11 11 12 13 12 10 11 14 16 17 16 16 19 20 20 19 19 20 20 19 18 20 21 19 17 15 12 10 9 8 7 7 6 6 6 5 4 4 3 3 3 2 1 2 2 2 2 1 2 2 4 7 7 5 4
8 9 6 6 11 15 17 18 10 7 11 16 13 9 10 9 9 11 12 12 12 12 10 10 10 9 8 8 9 10 10 8 9 11 10 9 11 13 15 17 17 16 17 20 20 19 20 20 19 19 19 18 20 20 18 16 14 11 9 8 7 7 6 5 5 5 4 3 3 1 1 2 1 1 2 1 2 3 3 2 1 2 3 6 7 5
Wind_Direction
80 64 55 176 196 197 224 192 137 124 118 120 111 92 113 227 287 275 293 316 17 355 272 243 269 280 281 283 285 297 330 306 271 271 268 265 263 259 259 261 267 264 263 286 295 256 234 225 199 257 88 178 201 220 247 267 283 296 303 310 330 338 328 327 331 332 335 341 341 341 345 346 349 353 356 3 5 5 5 3 359 358 356 355 358 359
64 80 127 215 197 179 177 169 118 86 79 84 102 75 43 209 265 272 305 310 347 355 276 330 316 286 279 282 286 303 322 290 251 235 253 253 251 253 247 254 262 266 279 300 293 241 221 228 216 214 205 213 223 233 263 283 291 297 306 319 336 342 338 337 336 335 338 340 337 336 338 339 343 348 351 358 5 7 8 7 3 0 356 352 354 354
41 100 210 223 167 106 75 114 105 87 87 67 90 90 15 294 279 295 317 321 349 338 280 351 342 292 285 287 284 281 259 262 247 221 231 232 244 252 234 242 256 272 291 304 285 243 232 246 242 239 235 238 252 256 272 290 304 311 317 325 334 339 342 344 341 340 340 338 336 335 334 336 339 344 349 356 3 5 5 6 6 4 360 355 353 352
49 206 200 154 142 108 52 47 86 88 78 60 79 102 281 316 0 314 306 324 329 288 284 332 327 289 296 311 294 273 245 272 281 260 250 232 231 238 233 235 235 247 260 269 271 256 249 259 256 251 246 249 263 275 293 303 309 314 321 326 332 338 343 346 344 344 345 345 344 341 338 338 339 346 355 0 6 8 6 8 12 10 7 4 1 357
90 260 144 98 100 138 97 41 79 95 30 4 99 124 172 287 304 254 286 322 327 355 347 345 331 297 318 341 295 302 337 309 315 307 267 246 241 252 275 268 232 225 226 231 249 256 264 275 277 270 258 263 277 301 317 320 316 314 322 327 333 342 346 349 349 353 356 356 355 350 347 348 352 359 6 6 4 6 7 8 12 14 12 12 11 7
90 284 145 104 52 76 110 56 118 135 39 331 227 165 162 177 221 274 312 342 15 21 9 24 3 294 316 315 258 301 349 313 327 342 257 265 284 274 271 271 255 242 234 227 239 257 277 289 293 294 318 325 328 340 335 330 325 322 329 335 344 353 358 1 1 6 6 1 359 358 1 4 2 2 7 4 358 358 2 5 9 14 17 16 16 16
107 36 66 126 102 70 82 73 241 149 104 12 220 174 152 141 150 339 352 13 35 302 319 46 89 259 315 301 245 304 340 307 316 313 269 289 298 271 253 258 261 258 251 241 250 265 279 296 306 320 2 7 360 4 356 344 340 338 344 353 3 11 19 22 16 11 2 356 359 6 16 19 11 4 3 3 2 1 3 7 9 14 20 20 20 21
99 51 47 75 84 76 83 102 208 137 103 247 191 135 133 123 147 136 68 69 242 274 335 22 79 206 297 275 256 307 332 307 304 278 292 321 303 281 266 258 253 249 245 241 256 276 285 309 328 345 19 32 34 36 35 31 26 22 26 37 45 47 45 35 18 3 356 358 8 22 33 37 31 19 14 14 16 14 11 15 16 17 22 25 26 24
83 80 111 93 76 90 179 205 189 132 86 238 186 140 149 143 147 133 92 84 305 344 320 330 27 169 265 277 306 358 199 268 265 243 267 307 314 317 273 254 249 245 242 231 241 275 302 342 20 44 59 69 73 72 73 71 70 73 78 84 81 70 56 38 24 15 17 25 33 39 45 48 45 37 34 32 30 27 23 24 24 23 25 27 29 29
89 225 192 136 98 176 198 352 167 116 74 178 150 105 76 81 86 82 83 109 27 6 255 275 2 64 266 280 311 25 216 238 243 246 258 270 284 291 304 59 127 255 288 227 232 260 316 45 70 81 84 86 85 86 87 86 88 89 89 90 84 73 65 59 54 51 55 57 54 53 52 53 51 47 45 44 40 36 32 31 30 28 28 27 28 28
327 277 177 104 78 156 130 63 31 78 91 130 114 79 54 33 40 56 49 84 58 316 253 263 310 190 277 278 230 197 217 203 195 228 250 249 243 233 264 33 64 53 53 91 128 109 88 84 87 92 92 91 92 94 95 94 96 95 94 93 87 81 77 74 72 70 69 66 62 61 58 57 55 51 48 46 43 39 37 36 35 33 33 32 30 28
357 17 2 60 66 119 101 68 32 29 65 102 94 71 42 345 9 26 355 36 85 268 262 263 283 168 224 262 239 234 249 212 178 181 186 180 169 165 150 84 67 60 77 93 95 96 90 84 84 89 90 92 95 96 95 97 99 98 97 95 90 84 80 78 76 74 72 69 67 65 64 63 60 57 54 52 50 46 43 41 38 37 35 34 32 30
358 25 308 353 7 124 111 65 23 10 31 68 68 59 47 350 0 359 323 351 202 247 268 266 277 234 232 246 247 253 259 237 207 190 174 173 174 177 165 129 90 96 106 100 94 91 85 83 85 89 92 93 94 95 96 99 100 98 94 91 88 83 81 80 77 75 74 71 70 69 68 67 64 62 60 58 55 52 49 46 43 41 38 36 35 32
345 314 351 29 322 103 131 138 11 348 43 87 118 90 84 61 32 317 282 301 274 262 281 284 285 277 272 265 238 238 249 239 228 230 214 190 180 184 181 145 37 97 104 102 97 90 90 98 99 99 99 98 97 98 99 100 99 96 91 88 88 85 84 82 80 78 77 74 73 72 70 69 66 64 62 60 58 55 53 50 48 46 44 42 41 38
64 290 296 131 278 35 115 213 165 136 107 131 162 117 119 146 139 256 247 243 283 294 298 300 279 202 230 269 229 232 259 274 254 247 246 241 231 225 246 312 112 120 104 100 99 95 101 109 108 107 105 103 102 101 100 99 97 94 90 89 89 88 86 84 82 81 79 77 76 74 73 70 69 67 65 63 60 58 56 54 52 50 47 46 45 43
147 253 258 295 286 84 224 256 112 102 107 189 160 96 90 172 147 166 194 191 239 318 301 280 235 217 218 267 284 289 287 302 308 284 201 222 237 250 240 198 156 140 118 114 112 108 115 114 113 113 110 107 104 101 99 97 97 95 93 93 91 90 89 87 85 82 81 80 77 75 74 72 71 70 68 66 63 61 59 57 55 53 50 49 48 47
96 273 292 345 345 72 224 251 38 36 205 154 120 145 225 152 117 112 209 292 66 24 282 264 255 294 319 281 310 5 167 257 326 190 183 203 203 185 204 186 162 157 140 133 135 133 131 121 116 115 113 108 103 98 97 96 98 99 98 97 95 93 92 89 87 85 83 81 78 76 74 72 71 70 68 67 65 64 62 60 59 56 54 52 51 50
144 265 299 34 120 286 255 161 42 340 178 105 123 214 220 115 96 99 6 350 42 231 279 305 261 294 334 273 318 20 185 227 245 224 225 231 216 208 209 192 175 171 154 150 149 139 133 124 118 114 109 105 101 99 99 99 101 101 100 100 98 95 92 90 89 87 84 81 79 76 74 72 71 70 69 68 67 66 64 62 59 57 55 53 52 51
132 265 299 299 172 306 342 90 9 341 37 84 151 188 120 132 122 68 126 266 358 282 288 309 292 263 214 226 263 216 201 210 221 220 228 228 216 213 210 199 186 171 160 162 156 144 133 125 119 113 107 104 103 102 103 103 104 102 100 99 97 95 94 92 91 88 84 82 80 77 76 74 72 71 69 68 66 65 63 60 58 56 55 53 52 51
102 120 284 260 194 316 353 184 231 279 37 42 80 355 32 154 166 134 143 176 203 258 275 313 325 271 230 216 195 207 208 195 197 205 212 216 214 208 197 187 182 173 173 172 159 150 131 120 118 114 109 107 106 106 106 106 105 102 100 99 97 96 95 92 90 88 85 83 82 81 78 75 73 71 68 67 65 63 61 59 57 55 53 52 51 50
67 113 250 290 316 278 243 214 200 177 142 112 136 223 284 157 139 185 296 128 143 178 194 282 307 269 247 211 188 210 214 198 195 195 202 215 217 212 196 183 177 172 178 173 156 146 125 117 115 111 110 110 109 108 107 106 105 103 101 100 97 95 92 89 88 88 87 86 85 82 79 76 73 70 68 66 64 63 61 59 58 56 54 53 51 49
104 143 190 275 292 226 237 259 207 173 163 154 164 183 177 151 119 126 295 316 103 152 180 164 269 270 258 204 198 217 216 212 210 197 199 213 217 213 198 187 181 170 175 172 153 140 127 123 120 115 113 112 109 107 106 106 106 103 100 98 96 93 89 87 87 87 87 87 84 81 78 76 73 71 69 66 64 63 61 59 58 56 55 54 51 49
147 108 123 237 230 218 262 298 28 134 133 128 158 179 139 138 125 132 220 253 142 144 164 119 256 270 262 213 217 236 231 231 231 212 211 220 221 211 185 185 191 175 170 161 142 133 129 127 124 119 115 111 109 108 107 106 105 102 98 97 96 93 90 89 87 87 87 86 84 81 79 77 74 72 69 66 64 62 61 60 58 56 55 53 50 48
113 95 81 286 295 324 333 344 23 30 73 112 258 183 142 164 142 144 173 176 155 181 155 104 273 269 275 272 242 252 258 257 249 226 217 220 230 216 175 173 189 169 149 139 130 126 127 127 125 121 116 112 111 111 110 108 105 102 99 98 97 95 93 93 90 88 86 85 84 82 80 78 75 73 69 65 62 60 60 59 57 55 53 51 48 46
267 137 104 5 334 338 349 353 341 344 23 217 241 196 177 135 102 117 137 88 255 219 157 143 246 255 273 309 302 285 288 276 256 233 218 215 224 217 175 162 177 156 135 134 133 130 132 131 128 123 120 117 117 116 114 111 107 104 101 99 99 98 97 96 94 90 86 84 84 82 80 78 76 73 70 66 63 60 59 58 56 54 52 49 46 44
242 200 132 129 193 260 277 280 271 259 230 229 200 191 207 161 134 152 125 110 245 235 149 173 235 263 291 321 324 314 313 288 259 227 219 227 231 222 174 151 168 155 145 149 146 142 140 134 129 126 124 123 122 120 117 113 110 107 103 101 101 101 99 98 95 92 88 84 83 81 79 77 75 74 72 69 66 61 58 57 56 54 52 48 45 42
99 221 193 170 192 212 207 216 213 165 173 212 209 202 199 192 168 131 113 171 202 178 197 224 237 284 290 285 292 292 279 265 252 218 214 230 234 230 186 157 174 156 151 156 149 146 143 135 133 131 128 127 125 123 121 117 113 110 106 102 102 102 101 100 98 94 90 86 84 81 79 78 76 75 74 71 68 64 59 57 55 53 52 48 45 41
93 290 245 189 224 235 200 212 226 159 213 216 210 205 193 189 167 153 192 210 153 134 260 240 198 250 269 256 238 252 249 241 240 226 219 220 221 216 163 145 170 156 151 156 154 154 148 141 140 135 131 129 127 125 122 117 113 111 107 105 104 104 103 102 100 97 92 88 84 81 79 79 77 76 74 71 68 65 60 57 55 53 51 47 45 41
122 239 242 171 263 268 222 238 247 208 237 229 211 213 197 182 179 194 216 207 158 200 253 243 170 225 260 256 225 226 228 220 222 222 219 219 222 207 160 153 171 167 163 164 164 162 154 148 147 140 136 134 130 127 123 118 114 111 109 108 108 106 104 103 101 97 93 89 84 81 80 79 77 75 72 69 66 63 59 57 54 52 49 46 44 39
151 224 224 142 288 287 289 313 258 207 251 270 240 228 211 196 199 209 221 210 199 232 253 262 266 265 266 259 228 220 227 221 224 231 219 222 227 217 194 188 187 178 173 170 167 165 158 151 147 142 139 137 135 131 126 122 118 115 113 112 111 108 106 104 100 95 92 88 85 83 80 77 75 72 69 66 64 60 57 55 51 49 47 44 41 37
215 240 187 106 330 294 304 355 358 209 224 253 257 244 222 214 218 226 233 220 218 247 256 265 278 275 269 253 210 219 224 216 232 239 224 221 222 217 211 206 195 184 176 171 166 162 157 150 146 144 142 141 139 135 130 126 122 119 117 115 112 110 107 104 98 93 89 87 85 83 79 75 72 69 67 64 61 59 55 51 48 45 43 39 36 32
167 229 35 74 359 281 311 5 335 318 267 259 267 254 226 214 214 220 221 200 203 231 247 259 259 262 265 223 176 222 220 216 236 237 234 236 222 206 205 200 193 184 175 170 167 162 158 153 150 147 144 143 142 138 134 131 126 122 119 116 113 110 106 101 95 91 88 86 85 83 78 74 70 67 65 61 58 56 50 47 44 40 38 36 31 27
143 146 138 107 194 270 302 336 322 352 346 277 262 242 218 212 216 228 233 214 208 213 224 226 234 251 267 142 192 232 213 218 238 237 239 247 229 209 204 195 189 182 174 170 166 161 157 153 150 147 145 145 144 141 138 135 129 124 121 117 113 108 103 98 94 90 87 85 84 82 78 75 70 66 63 59 55 52 48 44 41 37 35 32 27 23
129 122 154 163 184 269 288 313 350 355 301 263 255 218 195 196 205 218 231 224 210 203 217 240 252 265 275 225 224 232 213 215 236 234 229 232 219 214 212 200 188 176 168 164 159 155 150 146 145 145 145 145 143 140 138 133 127 124 120 116 112 107 102 98 94 92 89 85 82 81 78 74 69 64 61 57 53 49 46 42 39 35 32 28 24 21
141 120 144 172 157 252 301 357 352 266 242 255 284 258 185 164 179 209 245 245 219 213 229 249 257 257 256 247 235 232 229 231 248 247 236 221 209 211 209 198 181 166 162 161 156 152 150 149 147 146 145 143 141 137 133 129 126 122 119 116 113 109 105 100 96 92 90 86 82 80 78 73 68 62 58 55 51 47 45 41 36 32 28 26 23 19
151 146 147 149 162 231 11 90 216 251 265 282 281 241 162 128 128 201 276 260 224 214 222 236 247 252 255 256 247 223 230 272 300 260 232 212 210 211 208 197 179 169 168 166 160 157 156 155 151 147 144 142 140 136 132 130 128 124 120 117 114 110 107 103 99 93 89 85 80 77 76 73 67 59 56 53 49 46 43 38 34 30 24 23 20 16
142 143 150 204 206 187 201 223 255 307 308 289 275 224 165 192 167 161 268 262 217 206 212 224 243 252 251 254 247 113 98 347 314 268 222 190 196 204 200 190 171 165 162 157 155 155 154 153 148 144 143 141 139 137 134 133 131 125 121 119 114 110 106 103 99 93 86 82 79 77 74 72 67 57 55 53 47 45 42 35 32 28 22 20 17 12
111 154 169 199 226 123 155 278 299 311 286 266 262 259 208 191 163 154 250 281 233 216 210 210 231 243 244 242 148 118 110 27 287 262 208 166 172 171 161 157 153 154 152 148 149 148 148 148 145 142 142 139 138 140 139 136 133 126 122 120 116 111 106 100 95 93 88 82 81 78 73 72 67 56 55 54 47 44 41 34 30 25 21 20 14 7
55 27 116 150 216 117 148 239 240 232 247 245 247 273 262 192 164 126 335 292 251 228 202 191 220 239 235 195 151 143 125 163 258 258 182 156 168 157 147 147 143 143 144 146 147 147 146 145 143 142 141 139 140 144 142 138 133 126 121 120 117 112 105 98 93 95 95 88 84 81 77 76 69 57 56 55 48 46 41 32 28 24 21 21 11 5
65 23 82 164 216 180 163 228 238 232 249 246 237 248 242 189 129 80 322 276 252 235 186 179 215 236 209 157 150 160 177 210 251 258 153 149 154 144 139 142 141 140 141 144 147 147 145 145 144 143 143 142 143 145 143 139 132 124 120 118 115 107 100 99 99 101 99 91 86 84 80 78 71 59 57 53 46 47 44 31 26 25 21 15 8 6
87 353 151 186 214 198 194 240 265 257 240 234 224 203 191 162 97 118 244 243 218 220 197 182 211 224 173 152 168 192 206 218 242 121 136 138 138 135 129 132 140 144 144 146 148 147 145 146 145 144 144 144 145 145 143 138 129 121 118 116 109 103 105 110 108 101 97 91 88 85 82 79 72 61 58 54 44 45 45 34 25 25 21 10 8 10
165 186 179 166 190 196 199 231 286 287 243 213 191 162 153 174 212 218 232 228 166 204 208 198 216 213 169 177 198 204 204 134 110 128 138 139 143 142 134 137 142 144 146 148 149 148 145 143 142 142 143 146 146 145 143 137 127 119 118 113 107 110 116 113 106 100 98 95 90 85 81 78 74 62 56 52 43 43 45 36 24 24 22 12 11 15
169 168 199 192 182 162 146 190 263 284 246 175 145 117 165 212 222 223 237 256 199 193 194 208 223 210 184 201 214 200 128 123 139 144 142 146 150 145 143 148 149 149 150 150 151 151 146 142 141 142 144 147 147 145 142 134 124 118 116 112 110 117 116 110 107 107 105 99 92 86 81 78 72 62 56 50 42 43 45 34 23 24 22 18 19 17
186 178 197 212 187 157 166 199 219 246 207 161 150 159 202 212 209 158 181 241 243 198 188 216 232 217 199 208 209 176 148 154 160 157 151 154 158 151 150 153 153 153 154 152 153 153 147 142 141 140 142 145 145 143 141 135 125 117 113 112 115 117 115 113 117 115 108 103 97 90 85 81 69 56 54 49 40 41 42 29 21 24 23 25 24 10
213 189 174 194 195 190 206 215 218 236 189 191 210 218 211 223 231 165 182 243 263 214 189 204 232 221 202 194 180 169 178 178 170 168 165 165 165 159 157 160 159 157 152 149 152 153 148 143 140 137 138 139 138 137 139 137 129 117 110 115 119 117 116 117 119 114 108 107 104 92 82 78 67 51 48 47 39 38 35 20 16 23 27 27 16 360
237 174 127 194 232 267 265 242 223 236 236 224 240 245 235 252 264 205 209 246 248 221 199 204 218 205 182 175 172 181 194 182 170 172 173 170 170 165 161 160 157 153 149 147 150 151 148 142 137 136 134 130 130 135 137 136 130 119 115 120 119 115 116 116 113 112 109 106 104 90 70 61 60 49 43 44 40 38 32 14 11 26 32 22 359 353
269 156 189 237 259 272 266 231 198 224 235 229 238 251 258 256 248 218 216 241 242 227 220 221 213 184 172 183 189 190 188 174 170 175 175 173 176 172 165 161 160 157 154 152 153 152 147 142 139 138 132 125 130 138 136 132 128 122 120 120 114 111 116 112 108 111 107 100 94 80 59 50 50 44 39 40 34 30 30 16 15 27 27 10 353 350
207 163 187 216 222 236 252 244 207 243 263 256 242 245 252 250 244 232 229 237 243 243 234 221 198 177 182 197 195 184 177 175 176 176 173 176 180 174 170 169 167 163 157 154 155 154 148 145 145 142 133 127 133 138 136 130 127 123 119 114 107 108 111 105 101 102 97 90 82 69 53 45 45 38 29 28 25 18 13 8 13 19 7 359 354 350
131 160 177 196 221 249 266 266 257 273 283 271 249 233 236 244 243 237 233 232 235 243 237 222 210 198 194 199 190 173 175 183 183 177 174 176 177 174 173 168 160 154 150 151 155 156 151 148 147 141 132 129 135 138 135 130 126 123 118 109 100 100 100 93 90 89 86 82 78 64 47 40 43 28 5 6 17 27 26 11 5 357 343 345 348 340
151 199 176 167 231 251 258 252 238 237 263 264 254 237 234 237 236 236 236 228 225 231 226 217 219 216 206 204 192 179 184 187 179 175 176 176 172 166 161 155 146 141 143 147 151 152 149 146 144 136 127 129 137 139 135 129 125 120 114 104 93 88 86 82 82 85 87 86 78 60 29 25 38 3 342 343 335 343 35 106 58 7 348 331 309 290
193 213 177 189 237 247 251 249 232 210 246 261 265 252 237 225 216 224 232 231 227 227 218 210 213 214 211 208 197 190 192 180 157 160 165 162 157 151 147 145 141 136 139 144 144 140 137 138 138 129 124 132 142 142 137 132 127 118 108 98 85 74 72 73 78 88 96 91 84 66 334 345 353 308 316 301 277 305 334 357 39 40 0 322 302 289